FW7734 Weather Reports


time (UTC)temp
C
wind
direction
speed
KPH
gust
KPH
rain 1hr
cm
rain 24hr
cm
rain mn
cm
humidity
%
barometer
mb
20260504120116 7 102 4.8 4.8 0.00 0.00 0.00 69 1013.3
20260504110543 0 55 0.0 0.0 0.00 0.00 0.00 99 1013.5
20260504100505 0 54 1.6 1.6 0.00 0.00 0.00 98 1013.4
20260504081858 0 55 1.6 1.6 0.00 0.00 0.00 97 1013.5
20260504081354 0 55 0.0 1.6 0.00 0.00 0.00 97 1013.4
20260504080850 0 55 1.6 1.6 0.00 0.00 0.00 97 1013.5
20260504080348 0 55 0.0 1.6 0.00 0.00 0.00 97 1013.4
20260504070315 0 55 0.0 0.0 0.00 0.00 0.00 96 1013.2
20260504060235 1 55 3.2 3.2 0.00 0.00 0.00 95 1013.4
20260504050703 1 53 1.6 3.2 0.00 0.00 0.00 94 1013.3
20260504050200 1 55 1.6 1.6 0.00 0.00 0.00 94 1013.2
20260504045657 1 55 1.6 1.6 0.00 0.00 0.00 94 1013.4
20260504045152 2 56 1.6 3.2 0.00 0.00 0.00 94 1013.4
20260504044650 2 56 1.6 1.6 0.00 0.00 0.00 94 1013.2
20260504044147 2 56 0.0 1.6 0.00 0.00 0.00 94 1013.4
20260504043644 2 56 1.6 1.6 0.00 0.00 0.00 94 1013.2
20260504043141 2 56 1.6 3.2 0.00 0.00 0.00 94 1013.3
20260504042638 2 56 1.6 1.6 0.00 0.00 0.00 93 1013.2
20260504042135 2 56 1.6 1.6 0.00 0.00 0.00 93 1013.2
20260504041630 2 55 1.6 1.6 0.00 0.00 0.00 93 1013.4
20260504041127 2 55 1.6 1.6 0.00 0.00 0.00 93 1013.1
20260504040624 2 55 0.0 0.0 0.00 0.00 0.00 93 1013.2
20260504040121 3 56 1.6 1.6 0.00 0.00 0.00 93 1013.1
20260504035618 3 56 0.0 0.0 0.00 0.00 0.00 93 1013.3
20260504035114 3 56 0.0 1.6 0.00 0.00 0.00 92 1013.3
20260504034612 3 56 0.0 3.2 0.00 0.00 0.00 92 1012.9
20260504034109 3 56 0.0 1.6 0.00 0.00 0.00 92 1013.0
20260504033607 3 56 1.6 4.8 0.00 0.00 0.00 92 1013.1
20260504033103 3 55 1.6 1.6 0.00 0.00 0.00 91 1013.1
20260504032600 3 55 1.6 1.6 0.00 0.00 0.00 91 1013.0
20260504032057 4 55 1.6 1.6 0.00 0.00 0.00 90 1013.0
20260504031554 4 55 1.6 3.2 0.00 0.00 0.00 90 1013.0
20260504031050 4 55 0.0 0.0 0.00 0.00 0.00 90 1013.2
20260504030548 5 55 3.2 4.8 0.00 0.00 0.00 89 1012.8
20260504030044 5 56 1.6 3.2 0.00 0.00 0.00 89 1013.1
20260504025541 5 55 1.6 3.2 0.00 0.00 0.00 88 1013.2
20260504025038 5 55 3.2 3.2 0.00 0.00 0.00 88 1013.1
20260504024535 5 50 4.8 4.8 0.00 0.00 0.00 88 1013.2
20260504024032 5 56 1.6 1.6 0.00 0.00 0.00 88 1013.3
20260504023528 5 56 1.6 1.6 0.00 0.00 0.00 88 1013.2
20260504023024 5 56 3.2 4.8 0.00 0.00 0.00 87 1013.1
20260504022520 5 56 3.2 4.8 0.00 0.00 0.00 87 1013.1
20260504022017 5 56 0.0 1.6 0.00 0.00 0.00 86 1013.1
20260504021515 6 56 0.0 0.0 0.00 0.00 0.00 85 1013.1
20260504021012 6 56 0.0 0.0 0.00 0.00 0.00 84 1012.8
20260504020508 6 56 0.0 0.0 0.00 0.00 0.00 84 1013.1
20260504020005 6 56 1.6 1.6 0.00 0.00 0.00 84 1013.0
20260504015501 6 56 4.8 4.8 0.00 0.00 0.00 83 1013.0
20260504014957 6 56 0.0 1.6 0.00 0.00 0.00 82 1012.8
20260504014453 6 56 1.6 1.6 0.00 0.00 0.00 83 1012.9
20260504013950 6 56 1.6 1.6 0.00 0.00 0.00 82 1013.1
20260504013449 6 56 0.0 0.0 0.00 0.00 0.00 81 1013.0
20260504012944 6 56 1.6 1.6 0.00 0.00 0.00 81 1012.8
20260504012443 6 56 3.2 3.2 0.00 0.00 0.00 81 1012.8
20260504011940 6 56 1.6 3.2 0.00 0.00 0.00 81 1012.8
20260504011436 6 56 0.0 0.0 0.00 0.00 0.00 81 1012.6
20260504010932 6 56 1.6 1.6 0.00 0.00 0.00 81 1012.7
20260504010428 6 56 1.6 3.2 0.00 0.00 0.00 81 1012.5
20260504005925 6 55 1.6 3.2 0.00 0.00 0.00 79 1012.6
20260504005421 6 55 1.6 1.6 0.00 0.00 0.00 78 1012.5
20260504004919 6 56 1.6 1.6 0.00 0.00 0.00 76 1012.4
20260504004417 6 57 3.2 3.2 0.00 0.00 0.00 75 1012.5
20260504003913 7 57 0.0 0.0 0.00 0.00 0.00 73 1012.8
20260504003410 6 57 1.6 3.2 0.00 0.00 0.00 74 1012.5
20260504002906 7 57 1.6 3.2 0.00 0.00 0.00 73 1012.5
20260504002403 7 56 1.6 8.0 0.00 0.00 0.00 72 1012.4
20260504001901 7 57 1.6 3.2 0.00 0.00 0.00 72 1011.9
20260504001358 7 56 3.2 3.2 0.00 0.00 0.00 71 1012.0
20260504000855 8 57 1.6 4.8 0.00 0.00 0.00 70 1012.2
20260504000354 8 56 1.6 3.2 0.00 0.00 0.00 68 1011.8
20260503235849 9 56 0.0 0.0 0.00 0.00 0.00 67 1011.8
20260503235347 9 56 0.0 0.0 0.00 0.00 0.00 62 1011.9
20260503234844 10 56 0.0 0.0 0.00 0.00 0.00 63 1012.0
20260503234342 10 57 1.6 8.0 0.00 0.00 0.00 59 1012.0
20260503233839 11 43 1.6 3.2 0.00 0.00 0.00 58 1012.1
20260503233335 11 58 3.2 3.2 0.00 0.00 0.00 50 1011.8
20260503232832 11 61 3.2 3.2 0.00 0.00 0.00 48 1012.0
20260503232329 11 61 1.6 8.0 0.00 0.00 0.00 51 1012.0
20260503231827 11 12 3.2 3.2 0.00 0.00 0.00 48 1012.1
20260503231324 11 91 4.8 8.0 0.00 0.00 0.00 49 1011.9
20260503230820 11 309 3.2 3.2 0.00 0.00 0.00 48 1011.9
20260503230317 11 59 1.6 4.8 0.00 0.00 0.00 49 1011.8
20260503225815 11 99 3.2 3.2 0.00 0.00 0.00 50 1011.8
20260503225310 12 50 1.6 3.2 0.00 0.00 0.00 48 1011.8
20260503224807 12 254 4.8 4.8 0.00 0.00 0.00 49 1011.9
20260503224304 12 1 4.8 4.8 0.00 0.00 0.00 46 1011.9
20260503223802 12 248 9.7 14.5 0.00 0.00 0.00 45 1012.1
20260503223259 12 47 1.6 3.2 0.00 0.00 0.00 44 1011.9
20260503222755 12 6 6.4 11.3 0.00 0.00 0.00 46 1011.9
20260503222253 12 343 14.5 17.7 0.00 0.00 0.00 44 1012.1
20260503221751 13 199 6.4 8.0 0.00 0.00 0.00 44 1011.8
20260503221249 13 69 1.6 3.2 0.00 0.00 0.00 45 1011.9
20260503220745 12 216 3.2 3.2 0.00 0.00 0.00 44 1012.1
20260503220242 12 18 1.6 1.6 0.00 0.00 0.00 46 1011.9
20260503215739 13 16 3.2 8.0 0.00 0.00 0.00 46 1012.0
20260503215236 12 323 8.0 12.9 0.00 0.00 0.00 46 1012.0
20260503214734 12 11 11.3 16.1 0.00 0.00 0.00 47 1012.0
20260503214231 12 340 3.2 4.8 0.00 0.00 0.00 47 1011.9
20260503213729 12 321 6.4 8.0 0.00 0.00 0.00 46 1011.9
20260503213226 12 335 14.5 17.7 0.00 0.00 0.00 46 1012.0
20260503212722 12 301 6.4 8.0 0.00 0.00 0.00 48 1012.0
20260503212220 12 311 12.9 16.1 0.00 0.00 0.00 45 1011.8
20260503211718 12 25 19.3 24.1 0.00 0.00 0.00 45 1011.8
20260503211214 12 318 8.0 14.5 0.00 0.00 0.00 46 1011.9
20260503210710 12 288 8.0 11.3 0.00 0.00 0.00 46 1011.9
20260503210207 11 327 11.3 12.9 0.00 0.00 0.00 46 1012.2
20260503205702 11 11 11.3 17.7 0.00 0.00 0.00 46 1011.9
20260503205158 12 286 19.3 25.7 0.00 0.00 0.00 45 1012.0
20260503204655 12 190 6.4 14.5 0.00 0.00 0.00 43 1012.0
20260503204153 11 277 12.9 17.7 0.00 0.00 0.00 43 1012.2
20260503203649 11 322 12.9 16.1 0.00 0.00 0.00 42 1012.1
20260503203147 12 323 16.1 16.1 0.00 0.00 0.00 41 1011.9
20260503202644 12 345 19.3 24.1 0.00 0.00 0.00 40 1011.7
20260503202142 13 273 8.0 11.3 0.00 0.00 0.00 42 1011.6
20260503201640 12 325 11.3 20.9 0.00 0.00 0.00 40 1011.6
20260503201137 12 357 19.3 24.1 0.00 0.00 0.00 40 1011.7
20260503200633 12 315 14.5 16.1 0.00 0.00 0.00 40 1011.7
20260503200130 12 40 11.3 14.5 0.00 0.00 0.00 41 1011.8
20260503195627 12 280 6.4 12.9 0.00 0.00 0.00 40 1011.8
20260503195124 12 39 6.4 8.0 0.00 0.00 0.00 38 1011.8
20260503194621 12 353 9.7 11.3 0.00 0.00 0.00 40 1011.7
20260503194116 12 332 11.3 12.9 0.00 0.00 0.00 40 1012.0
20260503193613 12 334 6.4 9.7 0.00 0.00 0.00 39 1011.9
20260503193108 11 66 1.6 3.2 0.00 0.00 0.00 38 1012.2
20260503192604 11 307 9.7 11.3 0.00 0.00 0.00 40 1012.3
20260503192100 11 342 9.7 12.9 0.00 0.00 0.00 42 1012.3
20260503191557 12 358 8.0 11.3 0.00 0.00 0.00 40 1012.1
20260503191054 11 335 8.0 11.3 0.00 0.00 0.00 40 1012.4
20260503190551 11 4 6.4 8.0 0.00 0.00 0.00 41 1012.4
20260503190048 11 340 8.0 17.7 0.00 0.00 0.00 46 1012.4
20260503185545 11 325 19.3 22.5 0.00 0.00 0.00 41 1012.6
20260503185044 11 313 6.4 9.7 0.00 0.00 0.00 43 1012.7
20260503184540 12 341 11.3 14.5 0.00 0.00 0.00 41 1012.8
20260503184037 11 327 14.5 20.9 0.00 0.00 0.00 39 1012.9
20260503183534 11 335 11.3 16.1 0.00 0.00 0.00 42 1012.9
20260503183031 11 358 12.9 14.5 0.00 0.00 0.00 39 1013.0
20260503182529 11 14 11.3 20.9 0.00 0.00 0.00 45 1013.2
20260503182027 11 3 14.5 20.9 0.00 0.00 0.00 42 1013.4
20260503181524 11 22 14.5 22.5 0.00 0.00 0.00 42 1013.1
20260503181020 11 321 4.8 8.0 0.00 0.00 0.00 43 1013.2
20260503180518 10 346 17.7 20.9 0.00 0.00 0.00 42 1013.3
20260503180015 10 3 11.3 12.9 0.00 0.00 0.00 42 1013.3
20260503175512 9 10 4.8 8.0 0.00 0.00 0.00 44 1013.1
20260503175009 9 358 6.4 9.7 0.00 0.00 0.00 44 1013.5
20260503174507 10 306 11.3 12.9 0.00 0.00 0.00 43 1013.6
20260503174002 9 12 8.0 8.0 0.00 0.00 0.00 43 1013.6
20260503173457 10 345 4.8 14.5 0.00 0.00 0.00 45 1013.4
20260503172954 10 343 12.9 20.9 0.00 0.00 0.00 44 1013.6
20260503172452 10 336 3.2 4.8 0.00 0.00 0.00 45 1013.3
20260503171948 10 34 14.5 16.1 0.00 0.00 0.00 44 1013.7
20260503171445 9 172 9.7 16.1 0.00 0.00 0.00 45 1013.7
20260503170943 9 307 11.3 20.9 0.00 0.00 0.00 42 1013.4
20260503170438 10 80 4.8 9.7 0.00 0.00 0.00 43 1013.9
20260503150831 7 356 9.7 12.9 0.00 0.00 0.00 49 1014.5
20260503150327 8 307 3.2 4.8 0.00 0.00 0.00 52 1014.6
20260503140251 5 33 6.4 9.7 0.00 0.00 0.00 55 1014.6
20260503131221 5 256 4.8 8.0 0.00 0.00 0.00 66 1014.8
20260503130719 5 345 8.0 9.7 0.00 0.00 0.00 68 1014.8
20260503130216 5 348 11.3 16.1 0.00 0.00 0.00 68 1014.8